Pedhoulas Trader — C4JM2 — position and weather

sailwx.info

Track history (hours):
 
Tides and Currents Weather Stations Pressure Air Temp Water Temp Dewpoint Dewpoint Depression Visibility Wind Speed Wind Dir Waves Ship Positions

Pedhoulas Trader

Last reported at 2014-Oct-06 05:33 UTC. Time now 2014-Oct-24 07:53 UTC.
Position N 34°04' E 134°58'.
Warning: this ship's position is 18 days out of date.

Length 229 m; draft 8.6 m.

Type: Cargo ship. MMSI: 210073000.

Date/timePositionNaut miles runAvg speedWind from/ knotsBaromVisibWave heightAir tempDewpointWater temp
2014-Oct-06 05:33N 34°04' E 134°58'1412.7
2014-Oct-06 04:27N 34°18' E 134°59'1213.7
2014-Oct-06 03:33N 34°28' E 135°06'3 1.5
2014-Oct-06 01:30N 34°31' E 135°06'0 0.3
2014-Oct-06 00:31N 34°31' E 135°06'1 1.4
2014-Oct-05 23:30N 34°32' E 135°08'1 1.5
2014-Oct-05 22:30N 34°31' E 135°06'3 2.9
2014-Oct-05 21:33N 34°28' E 135°06'4 3.7
2014-Oct-05 20:33N 34°25' E 135°08'1 0.5
2014-Oct-05 19:33N 34°25' E 135°08'0 0.1
2014-Oct-05 18:33N 34°25' E 135°08'0 0.1
2014-Oct-05 17:33N 34°26' E 135°08'0 0.0
2014-Oct-05 16:27N 34°26' E 135°08'0 0.0
2014-Oct-05 15:27N 34°26' E 135°08'0 0.0
2014-Oct-05 14:27N 34°26' E 135°08'0 0.0
2014-Oct-05 13:33N 34°26' E 135°08'0 0.1
2014-Oct-05 12:33N 34°26' E 135°08'0 0.1
2014-Oct-05 11:33N 34°26' E 135°08'0 0.0
2014-Oct-05 10:33N 34°26' E 135°08'0 0.0
2014-Oct-05 09:33N 34°26' E 135°08'0 0.0
2014-Oct-05 08:33N 34°26' E 135°08'0 0.0
2014-Oct-05 07:21N 34°26' E 135°08'0 0.1
2014-Oct-05 06:33N 34°26' E 135°08'0 0.0
2014-Oct-05 05:27N 34°26' E 135°08'0 0.0
2014-Oct-05 04:27N 34°26' E 135°08'0 0.0
2014-Oct-05 03:33N 34°26' E 135°08'0 0.0
2014-Oct-05 02:33N 34°26' E 135°08'0 0.0
2014-Oct-05 01:33N 34°26' E 135°08'0 0.0
2014-Oct-05 00:33N 34°26' E 135°08'0 0.0
2014-Oct-04 23:27N 34°26' E 135°08'0 0.0
2014-Oct-04 22:21N 34°26' E 135°08'0 0.1
2014-Oct-04 21:33N 34°26' E 135°08'0 0.0
2014-Oct-04 20:33N 34°26' E 135°08'0 0.0
2014-Oct-04 19:33N 34°26' E 135°08'0 0.0
2014-Oct-04 18:27N 34°26' E 135°08'0 0.1
2014-Oct-04 17:33N 34°26' E 135°08'0 0.0
2014-Oct-04 16:21N 34°26' E 135°08'0 0.0
2014-Oct-04 15:21N 34°26' E 135°08'0 0.0
2014-Oct-04 14:33N 34°26' E 135°08'0 0.0
2014-Oct-04 13:33N 34°26' E 135°08'0 0.0
2014-Oct-04 12:33N 34°26' E 135°08'0 0.0
2014-Oct-04 11:33N 34°26' E 135°08'0 0.0
2014-Oct-04 10:33N 34°26' E 135°08'0 0.0
2014-Oct-04 09:33N 34°26' E 135°08'0 0.0
2014-Oct-04 08:33N 34°26' E 135°08'0 0.0
2014-Oct-04 07:33N 34°26' E 135°08'0 0.0
2014-Oct-04 06:33N 34°26' E 135°08'2 1.6
2014-Oct-04 05:33N 34°27' E 135°07'9 8.6
2014-Oct-04 04:33N 34°35' E 135°04'1211.6
2014-Oct-04 03:33N 34°34' E 134°50'1312.6
2014-Oct-04 02:30N 34°29' E 134°35'  
2014-Sep-28 21:33N 34°05' E 132°39'10 9.5
2014-Sep-28 20:33N 34°02' E 132°27'1110.9
2014-Sep-28 19:33N 34°11' E 132°20'10 9.8
2014-Sep-28 18:33N 34°18' E 132°29'5 4.7
2014-Sep-28 17:33N 34°14' E 132°31'0 0.0
2014-Sep-28 16:33N 34°14' E 132°31'0 0.0
2014-Sep-28 15:33N 34°14' E 132°31'0 0.0
2014-Sep-28 14:33N 34°14' E 132°31'0 0.0
2014-Sep-28 13:33N 34°14' E 132°31'0 0.0
2014-Sep-28 12:33N 34°14' E 132°31'0 0.1
2014-Sep-28 11:33N 34°14' E 132°31'0 0.1
2014-Sep-28 10:33N 34°14' E 132°31'0 0.1
2014-Sep-28 09:33N 34°14' E 132°31'0 0.0
2014-Sep-28 08:30N 34°14' E 132°31'0 0.1
2014-Sep-28 07:33N 34°14' E 132°31'0 0.0
2014-Sep-28 06:33N 34°14' E 132°31'0 0.0
2014-Sep-28 05:33N 34°14' E 132°31'0 0.0
2014-Sep-28 04:33N 34°14' E 132°31'0 0.2
2014-Sep-28 03:33N 34°14' E 132°31'0 0.1
2014-Sep-28 02:33N 34°14' E 132°31'0 0.0
2014-Sep-28 01:33N 34°14' E 132°31'0 0.0
2014-Sep-28 00:33N 34°14' E 132°31'0 0.0
2014-Sep-27 23:33N 34°14' E 132°31'0 0.0
2014-Sep-27 22:33N 34°14' E 132°31'0 0.0
2014-Sep-27 21:33N 34°14' E 132°31'0 0.0
2014-Sep-27 20:30N 34°14' E 132°31'0 0.1
2014-Sep-27 19:33N 34°14' E 132°31'0 0.0
2014-Sep-27 18:33N 34°14' E 132°31'0 0.0
2014-Sep-27 17:33N 34°14' E 132°31'0 0.1
2014-Sep-27 16:33N 34°14' E 132°31'0 0.1
2014-Sep-27 15:33N 34°14' E 132°31'0 0.0
2014-Sep-27 14:33N 34°14' E 132°31'0 0.1
2014-Sep-27 13:33N 34°14' E 132°31'0 0.0
2014-Sep-27 12:33N 34°14' E 132°31'0 0.1
2014-Sep-27 11:33N 34°14' E 132°31'0 0.1
2014-Sep-27 10:33N 34°14' E 132°31'0 0.1
2014-Sep-27 09:30N 34°14' E 132°31'0 0.1
2014-Sep-27 08:33N 34°14' E 132°31'0 0.0
2014-Sep-27 07:33N 34°14' E 132°31'0 0.0
2014-Sep-27 06:33N 34°14' E 132°31'0 0.1
2014-Sep-27 05:30N 34°14' E 132°31'0 0.1
2014-Sep-27 04:33N 34°14' E 132°31'1 0.6
2014-Sep-27 03:33N 34°13' E 132°32'0 0.4
2014-Sep-27 02:32N 34°13' E 132°32'0 0.0
2014-Sep-27 01:32N 34°13' E 132°32'0 0.0
2014-Sep-27 00:32N 34°13' E 132°32'0 0.0
2014-Sep-26 23:29N 34°13' E 132°32'0 0.0
2014-Sep-26 22:32N 34°13' E 132°32'0 0.0
2014-Sep-26 21:32N 34°13' E 132°32'0 0.0
2014-Sep-26 20:32N 34°13' E 132°32'0 0.0
2014-Sep-26 19:32N 34°13' E 132°32'0 0.0
2014-Sep-26 18:32N 34°13' E 132°32'0 0.0
2014-Sep-26 17:32N 34°13' E 132°32'0 0.0
2014-Sep-26 16:32N 34°13' E 132°32'0 0.0
2014-Sep-26 15:32N 34°13' E 132°32'0 0.0
2014-Sep-26 14:32N 34°13' E 132°32'0 0.0
2014-Sep-26 13:26N 34°13' E 132°32'0 0.0
2014-Sep-26 12:32N 34°13' E 132°32'0 0.0
2014-Sep-26 11:32N 34°13' E 132°32'0 0.0
2014-Sep-26 10:29N 34°13' E 132°32'0 0.0
2014-Sep-26 09:29N 34°13' E 132°32'0 0.0
2014-Sep-26 08:32N 34°13' E 132°32'0 0.0
2014-Sep-26 07:32N 34°13' E 132°32'0 0.0
2014-Sep-26 06:32N 34°13' E 132°32'  
Track history (hours):
 
Tides and Currents Weather Stations Pressure Air Temp Water Temp Dewpoint Dewpoint Depression Visibility Wind Speed Wind Dir Waves Ship Positions

Pedhoulas Trader

Last reported at 2014-Oct-06 05:33 UTC. Time now 2014-Oct-24 07:53 UTC.
Position N 34°04' E 134°58'.
Warning: this ship's position is 18 days out of date.

Length 229 m; draft 8.6 m.

Type: Cargo ship. MMSI: 210073000.

Date/timePositionNaut miles runAvg speedWind from/ knotsBaromVisibWave heightAir tempDewpointWater temp
2014-Oct-06 05:33N 34°04' E 134°58'1412.7
2014-Oct-06 04:27N 34°18' E 134°59'1213.7
2014-Oct-06 03:33N 34°28' E 135°06'3 1.5
2014-Oct-06 01:30N 34°31' E 135°06'0 0.3
2014-Oct-06 00:31N 34°31' E 135°06'1 1.4
2014-Oct-05 23:30N 34°32' E 135°08'1 1.5
2014-Oct-05 22:30N 34°31' E 135°06'3 2.9
2014-Oct-05 21:33N 34°28' E 135°06'4 3.7
2014-Oct-05 20:33N 34°25' E 135°08'1 0.5
2014-Oct-05 19:33N 34°25' E 135°08'0 0.1
2014-Oct-05 18:33N 34°25' E 135°08'0 0.1
2014-Oct-05 17:33N 34°26' E 135°08'0 0.0
2014-Oct-05 16:27N 34°26' E 135°08'0 0.0
2014-Oct-05 15:27N 34°26' E 135°08'0 0.0
2014-Oct-05 14:27N 34°26' E 135°08'0 0.0
2014-Oct-05 13:33N 34°26' E 135°08'0 0.1
2014-Oct-05 12:33N 34°26' E 135°08'0 0.1
2014-Oct-05 11:33N 34°26' E 135°08'0 0.0
2014-Oct-05 10:33N 34°26' E 135°08'0 0.0
2014-Oct-05 09:33N 34°26' E 135°08'0 0.0
2014-Oct-05 08:33N 34°26' E 135°08'0 0.0
2014-Oct-05 07:21N 34°26' E 135°08'0 0.1
2014-Oct-05 06:33N 34°26' E 135°08'0 0.0
2014-Oct-05 05:27N 34°26' E 135°08'0 0.0
2014-Oct-05 04:27N 34°26' E 135°08'0 0.0
2014-Oct-05 03:33N 34°26' E 135°08'0 0.0
2014-Oct-05 02:33N 34°26' E 135°08'0 0.0
2014-Oct-05 01:33N 34°26' E 135°08'0 0.0
2014-Oct-05 00:33N 34°26' E 135°08'0 0.0
2014-Oct-04 23:27N 34°26' E 135°08'0 0.0
2014-Oct-04 22:21N 34°26' E 135°08'0 0.1
2014-Oct-04 21:33N 34°26' E 135°08'0 0.0
2014-Oct-04 20:33N 34°26' E 135°08'0 0.0
2014-Oct-04 19:33N 34°26' E 135°08'0 0.0
2014-Oct-04 18:27N 34°26' E 135°08'0 0.1
2014-Oct-04 17:33N 34°26' E 135°08'0 0.0
2014-Oct-04 16:21N 34°26' E 135°08'0 0.0
2014-Oct-04 15:21N 34°26' E 135°08'0 0.0
2014-Oct-04 14:33N 34°26' E 135°08'0 0.0
2014-Oct-04 13:33N 34°26' E 135°08'0 0.0
2014-Oct-04 12:33N 34°26' E 135°08'0 0.0
2014-Oct-04 11:33N 34°26' E 135°08'0 0.0
2014-Oct-04 10:33N 34°26' E 135°08'0 0.0
2014-Oct-04 09:33N 34°26' E 135°08'0 0.0
2014-Oct-04 08:33N 34°26' E 135°08'0 0.0
2014-Oct-04 07:33N 34°26' E 135°08'0 0.0
2014-Oct-04 06:33N 34°26' E 135°08'2 1.6
2014-Oct-04 05:33N 34°27' E 135°07'9 8.6
2014-Oct-04 04:33N 34°35' E 135°04'1211.6
2014-Oct-04 03:33N 34°34' E 134°50'1312.6
2014-Oct-04 02:30N 34°29' E 134°35'  
2014-Sep-28 21:33N 34°05' E 132°39'10 9.5
2014-Sep-28 20:33N 34°02' E 132°27'1110.9
2014-Sep-28 19:33N 34°11' E 132°20'10 9.8
2014-Sep-28 18:33N 34°18' E 132°29'5 4.7
2014-Sep-28 17:33N 34°14' E 132°31'0 0.0
2014-Sep-28 16:33N 34°14' E 132°31'0 0.0
2014-Sep-28 15:33N 34°14' E 132°31'0 0.0
2014-Sep-28 14:33N 34°14' E 132°31'0 0.0
2014-Sep-28 13:33N 34°14' E 132°31'0 0.0
2014-Sep-28 12:33N 34°14' E 132°31'0 0.1
2014-Sep-28 11:33N 34°14' E 132°31'0 0.1
2014-Sep-28 10:33N 34°14' E 132°31'0 0.1
2014-Sep-28 09:33N 34°14' E 132°31'0 0.0
2014-Sep-28 08:30N 34°14' E 132°31'0 0.1
2014-Sep-28 07:33N 34°14' E 132°31'0 0.0
2014-Sep-28 06:33N 34°14' E 132°31'0 0.0
2014-Sep-28 05:33N 34°14' E 132°31'0 0.0
2014-Sep-28 04:33N 34°14' E 132°31'0 0.2
2014-Sep-28 03:33N 34°14' E 132°31'0 0.1
2014-Sep-28 02:33N 34°14' E 132°31'0 0.0
2014-Sep-28 01:33N 34°14' E 132°31'0 0.0
2014-Sep-28 00:33N 34°14' E 132°31'0 0.0
2014-Sep-27 23:33N 34°14' E 132°31'0 0.0
2014-Sep-27 22:33N 34°14' E 132°31'0 0.0
2014-Sep-27 21:33N 34°14' E 132°31'0 0.0
2014-Sep-27 20:30N 34°14' E 132°31'0 0.1
2014-Sep-27 19:33N 34°14' E 132°31'0 0.0
2014-Sep-27 18:33N 34°14' E 132°31'0 0.0
2014-Sep-27 17:33N 34°14' E 132°31'0 0.1
2014-Sep-27 16:33N 34°14' E 132°31'0 0.1
2014-Sep-27 15:33N 34°14' E 132°31'0 0.0
2014-Sep-27 14:33N 34°14' E 132°31'0 0.1
2014-Sep-27 13:33N 34°14' E 132°31'0 0.0
2014-Sep-27 12:33N 34°14' E 132°31'0 0.1
2014-Sep-27 11:33N 34°14' E 132°31'0 0.1
2014-Sep-27 10:33N 34°14' E 132°31'0 0.1
2014-Sep-27 09:30N 34°14' E 132°31'0 0.1
2014-Sep-27 08:33N 34°14' E 132°31'0 0.0
2014-Sep-27 07:33N 34°14' E 132°31'0 0.0
2014-Sep-27 06:33N 34°14' E 132°31'0 0.1
2014-Sep-27 05:30N 34°14' E 132°31'0 0.1
2014-Sep-27 04:33N 34°14' E 132°31'1 0.6
2014-Sep-27 03:33N 34°13' E 132°32'0 0.4
2014-Sep-27 02:32N 34°13' E 132°32'0 0.0
2014-Sep-27 01:32N 34°13' E 132°32'0 0.0
2014-Sep-27 00:32N 34°13' E 132°32'0 0.0
2014-Sep-26 23:29N 34°13' E 132°32'0 0.0
2014-Sep-26 22:32N 34°13' E 132°32'0 0.0
2014-Sep-26 21:32N 34°13' E 132°32'0 0.0
2014-Sep-26 20:32N 34°13' E 132°32'0 0.0
2014-Sep-26 19:32N 34°13' E 132°32'0 0.0
2014-Sep-26 18:32N 34°13' E 132°32'0 0.0
2014-Sep-26 17:32N 34°13' E 132°32'0 0.0
2014-Sep-26 16:32N 34°13' E 132°32'0 0.0
2014-Sep-26 15:32N 34°13' E 132°32'0 0.0
2014-Sep-26 14:32N 34°13' E 132°32'0 0.0
2014-Sep-26 13:26N 34°13' E 132°32'0 0.0
2014-Sep-26 12:32N 34°13' E 132°32'0 0.0
2014-Sep-26 11:32N 34°13' E 132°32'0 0.0
2014-Sep-26 10:29N 34°13' E 132°32'0 0.0
2014-Sep-26 09:29N 34°13' E 132°32'0 0.0
2014-Sep-26 08:32N 34°13' E 132°32'0 0.0
2014-Sep-26 07:32N 34°13' E 132°32'0 0.0
2014-Sep-26 06:32N 34°13' E 132°32'  

Dump ship's entire track history